Weather History for El Centro, CA

Change the Weather History Date:

Sunday, November 17, 2013

  Actual Average Record
Temperature  
Mean Temperature 60 °F -  
Max Temperature 72 °F 75 °F 88 °F (2008)
Min Temperature 48 °F 50 °F 42 °F (2000)
Degree Days  
Heating Degree Days 5    
Growing Degree Days 10 (Base 50)    
Moisture  
Dew Point 41 °F    
Average Humidity 50    
Maximum Humidity 66    
Minimum Humidity 36    
Precipitation  
Precipitation 0.00 in - - ()
Sea Level Pressure  
Sea Level Pressure 30.03 in    
Wind  
Wind Speed 7 mph (West)    
Max Wind Speed 14 mph    
Max Gust Speed -    
Visibility 10 miles    
Events      
Averages and records for this station are not official NWS values.
T = Trace of Precipitation, MM = Missing Value Source: NWS Daily Summary

Daily Weather History Graph

Daily Weather History Graph

Search for Another Location

Airport:

Trip Planner

Search our weather history database for the weather conditions in past years. The results will help you decide how hot, cold, wet, or windy it might be!

Date:

Astronomy

Nov. 17, 2013 Rise Set
Actual Time 6:14 AM PST 4:40 PM PST
Civil Twilight 5:48 AM PST 5:06 PM PST
Nautical Twilight 5:18 AM PST 5:36 PM PST
Astronomical Twilight 4:49 AM PST 6:05 PM PST
Moon 5:00 PM PST (11/17) 6:13 AM PST (11/17)
Length of Visible Light 11h 17m
Length of Day
10h 25m
Full, 100% of the Moon is Illuminated
Nov 17
Full
Nov 25
Last Quarter
Dec 2
New
Dec 9
First Quarter
Dec 17
Full

Hourly Weather History & Observations

Time (PST) Temp. Dew Point Humidity Pressure Visibility Wind Dir Wind Speed Gust Speed Precip Events Conditions
12:56 AM 59.0 °F 39.9 °F 49% 29.93 in 10.0 mi WSW 11.5 mph - N/A   Clear
1:56 AM 57.0 °F 41.0 °F 55% 29.94 in 10.0 mi West 13.8 mph - N/A   Clear
2:56 AM 57.0 °F 41.0 °F 55% 29.94 in 10.0 mi West 6.9 mph - N/A   Clear
3:56 AM 55.9 °F 39.9 °F 55% 29.95 in 10.0 mi West 5.8 mph - N/A   Clear
4:56 AM 53.1 °F 39.0 °F 59% 29.97 in 10.0 mi SW 5.8 mph - N/A   Clear
5:56 AM 51.1 °F 39.0 °F 63% 30.00 in 10.0 mi South 5.8 mph - N/A   Clear
6:56 AM 48.9 °F 37.9 °F 66% 30.03 in 10.0 mi SW 4.6 mph - N/A   Clear
7:56 AM 55.0 °F 42.1 °F 62% 30.05 in 8.0 mi WSW 3.5 mph - N/A   Clear
8:56 AM 62.1 °F 44.1 °F 52% 30.07 in 10.0 mi SW 5.8 mph - N/A   Clear
9:56 AM 66.0 °F 43.0 °F 43% 30.08 in 10.0 mi Calm Calm - N/A   Clear
10:56 AM 70.0 °F 44.1 °F 39% 30.07 in 10.0 mi North 5.8 mph - N/A   Clear
11:56 AM 70.0 °F 44.1 °F 39% 30.05 in 10.0 mi NNW 5.8 mph - N/A   Clear
12:56 PM 72.0 °F 44.1 °F 37% 30.03 in 10.0 mi Variable 6.9 mph - N/A   Clear
1:56 PM 71.1 °F 43.0 °F 36% 30.03 in 10.0 mi Variable 4.6 mph - N/A   Clear
2:56 PM 72.0 °F 44.1 °F 37% 30.03 in 10.0 mi Calm Calm - N/A   Clear
3:56 PM 71.1 °F 45.0 °F 39% 30.03 in 10.0 mi Calm Calm - N/A   Clear
4:56 PM 66.9 °F 42.1 °F 40% 30.03 in 10.0 mi WNW 3.5 mph - N/A   Clear
5:56 PM 64.9 °F 42.1 °F 43% 30.05 in 10.0 mi Calm Calm - N/A   Clear
6:56 PM 63.0 °F 43.0 °F 48% 30.06 in 10.0 mi Calm Calm - N/A   Clear
7:56 PM 59.0 °F 43.0 °F 55% 30.07 in 10.0 mi NNW 4.6 mph - N/A   Clear
8:56 PM 57.0 °F 39.0 °F 51% 30.08 in 10.0 mi West 5.8 mph - N/A   Clear
9:56 PM 54.0 °F 39.0 °F 57% 30.09 in 10.0 mi West 6.9 mph - N/A   Clear
10:56 PM 53.1 °F 36.0 °F 52% 30.09 in 10.0 mi WNW 5.8 mph - N/A   Clear
11:56 PM 53.1 °F 37.9 °F 57% 30.09 in 10.0 mi West 6.9 mph - N/A   Clear